sat.trackr.live / text

‹ back to catalog

STARLINK-31554

NORAD 59195 · 2024-045T

PAYLOAD ACTIVE UNKNOWN

§ Identity

Operator
Country
US
Launch date
2024-03-10
Launch site
AFETR
Launch vehicle
Mass (kg)
RCS (m²)

Purposes: comms

External: N2YO · Heavens-Above · Gunter

§ Orbital elements

Epoch: 2026-05-24T23:01:14.356416Z

Period
94.27 min
Inclination
43.0015°
Eccentricity
0.0001346
Mean motion
15.27582433 rev/d
Perigee alt
482.1 km
Apogee alt
484.0 km
Semi-major
6,861.2 km
B*
7.5016e-6
RAAN
21.9993°
Arg perigee
270.9359°
Mean anomaly
89.1339°
Rev number
12,482

§ Raw data

STARLINK-315541 59195U 24045T   26144.95919394 -.00000056  00000+0  75016-5 0  99952 59195  43.0015  21.9993 0001346 270.9359  89.1339 15.27582433124826

JSON: /api/v1/satellites/59195 · /tle

For live sub-satellite position, see the globe view (requires WebGL).

§ Visibility from observer

Set your observer location to see the next 7 days of passes ≥ 10°. The values pass through the URL so the page stays shareable.

No JS? Fill the form by hand. The geolocation button needs JavaScript.